KD8ILV Weather Reports


Display with metric or nautical units.
time (UTC)temp
F
wind
direction
speed
MPH
gust
MPH
rain 1hr
in
rain 24hr
in
rain mn
in
humidity
%
barometer
mb
20260902203553 96 163 0.0 2.0 0.00 0.00 0.00 52 1018.4
20260902203103 96 0 0.0 2.0 0.00 0.00 0.00 51 1018.3
20260902202553 96 163 0.0 2.0 0.00 0.00 0.00 50 1018.4
20260902202053 96 0 0.0 2.0 0.00 0.00 0.00 52 1018.4
20260902201609 96 0 0.0 2.0 0.00 0.00 0.00 50 1018.4
20260902201054 97 163 0.0 2.0 0.00 0.00 0.00 51 1018.5
20260902200553 97 163 0.0 2.0 0.00 0.00 0.00 52 1018.5
20260902200110 97 0 0.0 2.0 0.00 0.00 0.00 50 1018.5
20260902195552 97 163 0.0 2.0 0.00 0.00 0.00 49 1018.7
20260902195053 97 163 0.0 2.0 0.00 0.00 0.00 51 1018.6
20260902194605 97 163 0.0 1.0 0.00 0.00 0.00 50 1018.8
20260902194052 97 163 0.0 1.0 0.00 0.00 0.00 51 1018.8
20260902193553 97 163 0.0 1.0 0.00 0.00 0.00 50 1018.8
20260902193107 96 163 0.0 3.0 0.00 0.00 0.00 54 1018.8
20260902192557 96 0 0.0 3.0 0.00 0.00 0.00 51 1019.1
20260902192053 97 163 0.0 3.0 0.00 0.00 0.00 50 1018.9
20260902191633 97 163 0.0 1.0 0.00 0.00 0.00 48 1019.1
20260902191057 97 163 0.0 1.0 0.00 0.00 0.00 49 1019.2
20260902190558 97 163 0.0 2.0 0.00 0.00 0.00 50 1019.3
20260902185553 97 163 0.0 2.0 0.00 0.00 0.00 51 1019.3
20260902185055 97 163 0.0 2.0 0.00 0.00 0.00 50 1019.4
20260902184603 97 163 0.0 2.0 0.00 0.00 0.00 51 1019.3
20260902184053 96 163 0.0 2.0 0.00 0.00 0.00 51 1019.3
20260902183557 96 163 0.0 1.0 0.00 0.00 0.00 52 1019.4
20260902183124 97 0 0.0 2.0 0.00 0.00 0.00 50 1019.4
20260902182552 97 0 0.0 2.0 0.00 0.00 0.00 50 1019.5
20260902182053 97 163 0.0 2.0 0.00 0.00 0.00 50 1019.5
20260902181612 97 163 0.0 2.0 0.00 0.00 0.00 50 1019.5
20260902181053 97 163 0.0 2.0 0.00 0.00 0.00 50 1019.5
20260902180550 97 163 0.0 2.0 0.00 0.00 0.00 50 1019.5
20260902180105 97 0 0.0 3.0 0.00 0.00 0.00 51 1019.6
20260902175553 96 0 0.0 3.0 0.00 0.00 0.00 51 1019.7
20260902175053 96 163 0.0 3.0 0.00 0.00 0.00 51 1019.7
20260902174605 96 163 0.0 3.0 0.00 0.00 0.00 52 1019.8
20260902174053 96 163 0.0 3.0 0.00 0.00 0.00 52 1019.8
20260902173553 96 0 0.0 3.0 0.00 0.00 0.00 54 1019.8
20260902173114 96 163 1.0 3.0 0.00 0.00 0.00 54 1019.9
20260902172552 96 163 0.0 2.0 0.00 0.00 0.00 53 1020.0
20260902172053 96 0 0.0 2.0 0.00 0.00 0.00 55 1020.0
20260902171618 95 0 0.0 2.0 0.00 0.00 0.00 56 1020.0
20260902171056 95 0 0.0 2.0 0.00 0.00 0.00 56 1020.0
20260902170552 95 163 0.0 2.0 0.00 0.00 0.00 57 1020.0
20260902170104 95 163 0.0 2.0 0.00 0.00 0.00 56 1020.2
20260902165553 95 0 0.0 2.0 0.00 0.00 0.00 58 1020.3
20260902165053 94 0 0.0 0.0 0.00 0.00 0.00 58 1020.3
20260902164606 95 0 0.0 0.0 0.00 0.00 0.00 56 1020.3
20260902164054 95 0 0.0 2.0 0.00 0.00 0.00 59 1020.3
20260902163554 94 163 0.0 2.0 0.00 0.00 0.00 58 1020.2
20260902163105 94 163 0.0 2.0 0.00 0.00 0.00 59 1020.4
20260902162554 94 0 0.0 2.0 0.00 0.00 0.00 58 1020.4
20260902162055 94 0 0.0 0.0 0.00 0.00 0.00 59 1020.5
20260902161605 93 0 0.0 2.0 0.00 0.00 0.00 58 1020.4
20260902161053 93 0 0.0 2.0 0.00 0.00 0.00 58 1020.5
20260902160557 93 0 0.0 2.0 0.00 0.00 0.00 58 1020.5
20260902160121 93 0 0.0 2.0 0.00 0.00 0.00 59 1020.5
20260902155553 93 163 0.0 1.0 0.00 0.00 0.00 58 1020.5
20260902155055 92 163 0.0 1.0 0.00 0.00 0.00 60 1020.6
20260902154618 92 163 0.0 2.0 0.00 0.00 0.00 58 1020.7
20260902154055 92 163 0.0 2.0 0.00 0.00 0.00 59 1020.7
20260902153554 92 163 0.0 1.0 0.00 0.00 0.00 61 1020.6
20260902153107 92 0 0.0 0.0 0.00 0.00 0.00 61 1020.8
20260902152553 92 0 0.0 0.0 0.00 0.00 0.00 61 1020.8
20260902152057 91 0 0.0 0.0 0.00 0.00 0.00 62 1020.8
20260902151600 91 0 0.0 0.0 0.00 0.00 0.00 61 1020.8
20260902151055 91 0 0.0 0.0 0.00 0.00 0.00 63 1020.8
20260902150553 91 0 0.0 0.0 0.00 0.00 0.00 62 1020.8
20260902150104 91 0 0.0 0.0 0.00 0.00 0.00 63 1020.8
20260902145553 90 0 0.0 0.0 0.00 0.00 0.00 64 1020.8
20260902145054 90 0 0.0 0.0 0.00 0.00 0.00 65 1020.8
20260902144600 89 0 0.0 0.0 0.00 0.00 0.00 65 1020.7
20260902144052 89 0 0.0 0.0 0.00 0.00 0.00 66 1020.8
20260902143554 89 0 0.0 0.0 0.00 0.00 0.00 65 1020.8
20260902143100 88 0 0.0 0.0 0.00 0.00 0.00 65 1020.7
20260902142553 88 0 0.0 0.0 0.00 0.00 0.00 68 1020.7
20260902142052 88 0 0.0 0.0 0.00 0.00 0.00 66 1020.6
20260902141600 87 0 0.0 0.0 0.00 0.00 0.00 67 1020.7
20260902141054 87 0 0.0 0.0 0.00 0.00 0.00 68 1020.7
20260902140553 86 0 0.0 0.0 0.00 0.00 0.00 67 1020.7
20260902140100 87 0 0.0 0.0 0.00 0.00 0.00 68 1020.8
20260902135552 87 0 0.0 0.0 0.00 0.00 0.00 67 1020.8
20260902135052 86 0 0.0 0.0 0.00 0.00 0.00 69 1020.8
20260902134603 86 0 0.0 0.0 0.00 0.00 0.00 70 1020.8
20260902134052 85 0 0.0 0.0 0.00 0.00 0.00 70 1020.8
20260902133555 85 0 0.0 0.0 0.00 0.00 0.00 70 1020.8
20260902133105 85 0 0.0 0.0 0.00 0.00 0.00 69 1020.8
20260902132554 85 0 0.0 0.0 0.00 0.00 0.00 70 1020.7
20260902132052 85 0 0.0 0.0 0.00 0.00 0.00 71 1020.7
20260902131602 84 0 0.0 0.0 0.00 0.00 0.00 71 1020.8
20260902131054 84 0 0.0 0.0 0.00 0.00 0.00 72 1020.8
20260902130553 83 0 0.0 1.0 0.00 0.00 0.00 73 1020.7
20260902125555 83 163 0.0 1.0 0.00 0.00 0.00 74 1020.6
20260902125055 83 163 0.0 0.0 0.00 0.00 0.00 75 1020.6
20260902124559 83 0 0.0 0.0 0.00 0.00 0.00 75 1020.6
20260902124058 82 0 0.0 0.0 0.00 0.00 0.00 75 1020.6
20260902123552 82 0 0.0 0.0 0.00 0.00 0.00 76 1020.5
20260902123105 81 0 0.0 0.0 0.00 0.00 0.00 77 1020.5
20260902122552 80 0 0.0 0.0 0.00 0.00 0.00 78 1020.4
20260902122054 80 0 0.0 0.0 0.00 0.00 0.00 80 1020.4
20260902121605 79 0 0.0 0.0 0.00 0.00 0.00 81 1020.5
20260902121054 78 0 0.0 0.0 0.00 0.00 0.00 83 1020.3
20260902120554 77 0 0.0 0.0 0.00 0.00 0.00 85 1020.2
20260902120105 76 0 0.0 0.0 0.00 0.00 0.00 86 1020.3
20260902115554 75 0 0.0 0.0 0.00 0.00 0.00 87 1020.2
20260902115054 74 0 0.0 0.0 0.00 0.00 0.00 88 1020.2
20260902114600 74 0 0.0 0.0 0.00 0.00 0.00 89 1020.1
20260902114055 73 0 0.0 0.0 0.00 0.00 0.00 89 1020.1
20260902113554 73 0 0.0 0.0 0.00 0.00 0.00 89 1020.0
20260902113103 73 0 0.0 0.0 0.00 0.00 0.00 89 1019.9
20260902112645 73 0 0.0 0.0 0.00 0.00 0.00 89 1019.9
20260902112055 73 0 0.0 0.0 0.00 0.00 0.00 89 1019.8
20260902111606 73 0 0.0 0.0 0.00 0.00 0.00 89 1019.8
20260902111053 73 0 0.0 0.0 0.00 0.00 0.00 89 1019.8
20260902110553 73 0 0.0 0.0 0.00 0.00 0.00 89 1019.8
20260902110059 73 0 0.0 0.0 0.00 0.00 0.00 89 1019.9
20260902105552 73 0 0.0 0.0 0.00 0.00 0.00 89 1019.8
20260902105053 73 0 0.0 0.0 0.00 0.00 0.00 89 1019.8
20260902104614 73 0 0.0 0.0 0.00 0.00 0.00 88 1019.9
20260902104055 73 0 0.0 0.0 0.00 0.00 0.00 89 1019.8
20260902103552 73 0 0.0 0.0 0.00 0.00 0.00 89 1019.9
20260902103102 73 0 0.0 0.0 0.00 0.00 0.00 88 1019.8
20260902102555 73 0 0.0 0.0 0.00 0.00 0.00 88 1019.8
20260902102052 73 0 0.0 0.0 0.00 0.00 0.00 89 1019.8
20260902101559 73 0 0.0 0.0 0.00 0.00 0.00 89 1019.7
20260902101054 73 0 0.0 0.0 0.00 0.00 0.00 89 1019.8
20260902100553 73 0 0.0 0.0 0.00 0.00 0.00 89 1019.6
20260902100059 73 0 0.0 0.0 0.00 0.00 0.00 89 1019.5
20260902095554 73 0 0.0 0.0 0.00 0.00 0.00 89 1019.6
20260902095054 73 0 0.0 0.0 0.00 0.00 0.00 89 1019.6
20260902094602 73 0 0.0 0.0 0.00 0.00 0.00 89 1019.5
20260902094052 74 0 0.0 0.0 0.00 0.00 0.00 88 1019.5
20260902093551 74 0 0.0 0.0 0.00 0.00 0.00 88 1019.5
20260902093107 74 0 0.0 0.0 0.00 0.00 0.00 89 1019.6
20260902092554 74 0 0.0 0.0 0.00 0.00 0.00 89 1019.7
20260902092056 74 0 0.0 0.0 0.00 0.00 0.00 89 1019.6
20260902091606 73 0 0.0 0.0 0.00 0.00 0.00 89 1019.5
20260902091052 73 0 0.0 0.0 0.00 0.00 0.00 89 1019.5
20260902090553 74 0 0.0 0.0 0.00 0.00 0.00 88 1019.5
20260902090120 74 0 0.0 0.0 0.00 0.00 0.00 88 1019.5
20260902085557 74 0 0.0 0.0 0.00 0.00 0.00 88 1019.4
20260902085054 74 0 0.0 0.0 0.00 0.00 0.00 88 1019.3
20260902084604 74 0 0.0 0.0 0.00 0.00 0.00 88 1019.3
20260902084052 74 0 0.0 0.0 0.00 0.00 0.00 88 1019.3
20260902083552 74 0 0.0 0.0 0.00 0.00 0.00 87 1019.2
20260902083106 74 0 0.0 0.0 0.00 0.00 0.00 87 1019.1
20260902082557 74 0 0.0 0.0 0.00 0.00 0.00 87 1019.0
20260902082053 74 0 0.0 0.0 0.00 0.00 0.00 87 1019.1
20260902081601 74 0 0.0 0.0 0.00 0.00 0.00 87 1019.1
20260902081052 74 0 0.0 0.0 0.00 0.00 0.00 87 1018.9
20260902080553 74 0 0.0 0.0 0.00 0.00 0.00 87 1018.9
20260902075552 75 0 0.0 0.0 0.00 0.00 0.00 86 1018.9
20260902075050 75 0 0.0 0.0 0.00 0.00 0.00 86 1018.9
20260902074605 75 0 0.0 0.0 0.00 0.00 0.00 86 1018.9
20260902074052 75 0 0.0 0.0 0.00 0.00 0.00 86 1018.8
20260902073553 75 0 0.0 0.0 0.00 0.00 0.00 86 1018.9
20260902073102 75 0 0.0 0.0 0.00 0.00 0.00 86 1018.8
20260902072551 75 0 0.0 0.0 0.00 0.00 0.00 86 1018.8
20260902072050 75 0 0.0 0.0 0.00 0.00 0.00 86 1018.9
20260902071557 75 0 0.0 0.0 0.00 0.00 0.00 86 1018.8
20260902071052 75 0 0.0 0.0 0.00 0.00 0.00 86 1018.9
20260902070553 75 0 0.0 0.0 0.00 0.00 0.00 86 1018.8
20260902070108 75 0 0.0 0.0 0.00 0.00 0.00 86 1018.9
20260902065552 75 0 0.0 0.0 0.00 0.00 0.00 86 1018.9
20260902065053 75 0 0.0 0.0 0.00 0.00 0.00 86 1018.9
20260902064600 75 0 0.0 0.0 0.00 0.00 0.00 85 1018.9
20260902064052 75 0 0.0 0.0 0.00 0.00 0.00 85 1018.9
20260902063553 75 0 0.0 0.0 0.00 0.00 0.00 85 1018.9
20260902063059 75 0 0.0 0.0 0.00 0.00 0.00 85 1018.9
20260902062552 76 0 0.0 0.0 0.00 0.00 0.00 85 1018.9
20260902062056 76 0 0.0 0.0 0.00 0.00 0.00 85 1018.9
20260902061054 76 0 0.0 0.0 0.00 0.00 0.00 84 1019.0
20260902060549 76 0 0.0 0.0 0.00 0.00 0.00 84 1019.0
20260902060109 76 0 0.0 0.0 0.00 0.00 0.00 85 1019.0
20260902055552 76 0 0.0 0.0 0.00 0.00 0.00 85 1019.1
20260902055052 76 0 0.0 0.0 0.00 0.00 0.00 85 1019.0
20260902054613 76 0 0.0 0.0 0.00 0.00 0.00 85 1019.0
20260902054052 76 0 0.0 0.0 0.00 0.00 0.00 85 1019.0
20260902053552 76 0 0.0 0.0 0.00 0.00 0.00 85 1019.0
20260902053105 76 0 0.0 0.0 0.00 0.00 0.00 85 1019.0
20260902052553 76 0 0.0 0.0 0.00 0.00 0.00 85 1019.0
20260902052053 76 0 0.0 0.0 0.00 0.00 0.00 86 1019.0
20260902051601 76 0 0.0 0.0 0.00 0.00 0.00 86 1019.2
20260902051054 76 0 0.0 0.0 0.00 0.00 0.00 85 1019.1
20260902050555 76 0 0.0 0.0 0.00 0.00 0.00 85 1019.0
20260902050105 76 0 0.0 0.0 0.00 0.00 0.00 85 1019.1
20260902045552 76 0 0.0 0.0 0.00 0.00 0.00 85 1019.1
20260902045053 76 0 0.0 0.0 0.00 0.00 0.00 84 1019.0
20260902044607 76 0 0.0 0.0 0.00 0.00 0.00 84 1019.1
20260902044053 76 0 0.0 0.0 0.00 0.00 0.00 84 1019.0
20260902043552 76 0 0.0 0.0 0.00 0.00 0.00 84 1019.1
20260902043108 76 0 0.0 0.0 0.00 0.00 0.00 84 1019.1
20260902042552 76 0 0.0 0.0 0.00 0.00 0.00 83 1019.1
20260902042052 77 0 0.0 0.0 0.00 0.00 0.00 83 1019.1
20260902041601 77 0 0.0 0.0 0.00 0.00 0.00 83 1019.2
20260902041052 77 0 0.0 0.0 0.00 0.00 0.00 83 1019.1
20260902040554 77 0 0.0 0.0 0.00 0.00 0.00 83 1019.1
20260902040109 77 0 0.0 0.0 0.00 0.00 0.00 82 1019.1
20260902035552 77 0 0.0 0.0 0.00 0.00 0.00 82 1019.2
20260902035052 77 0 0.0 0.0 0.00 0.00 0.00 82 1019.1
20260902034605 78 0 0.0 0.0 0.00 0.00 0.00 82 1019.2
20260902034053 78 0 0.0 0.0 0.00 0.00 0.00 82 1019.2
20260902033552 78 0 0.0 0.0 0.00 0.00 0.00 81 1019.1
20260902033105 78 0 0.0 0.0 0.00 0.00 0.00 81 1019.1
20260902032553 78 0 0.0 0.0 0.00 0.00 0.00 81 1019.1
20260902032054 78 0 0.0 0.0 0.00 0.00 0.00 81 1019.1
20260902031603 79 0 0.0 0.0 0.00 0.00 0.00 81 1019.0
20260902031053 79 0 0.0 0.0 0.00 0.00 0.00 81 1019.0
20260902030552 79 0 0.0 0.0 0.00 0.00 0.00 81 1019.0
20260902025553 78 0 0.0 0.0 0.00 0.00 0.00 80 1019.0
20260902025054 79 0 0.0 0.0 0.00 0.00 0.00 80 1018.9
20260902024600 79 0 0.0 0.0 0.00 0.00 0.00 80 1018.9
20260902024053 79 0 0.0 0.0 0.00 0.00 0.00 80 1019.1
20260902023551 79 0 0.0 0.0 0.00 0.00 0.00 80 1019.0
20260902023109 79 0 0.0 0.0 0.00 0.00 0.00 80 1019.0
20260902022553 79 0 0.0 0.0 0.00 0.00 0.00 80 1019.0
20260902022052 79 0 0.0 0.0 0.00 0.00 0.00 80 1019.0
20260902021603 79 0 0.0 0.0 0.00 0.00 0.00 80 1019.1
20260902021052 79 0 0.0 0.0 0.00 0.00 0.00 80 1019.0
20260902020552 79 0 0.0 0.0 0.00 0.00 0.00 80 1019.1
20260902020059 79 0 0.0 0.0 0.00 0.00 0.00 80 1019.2
20260902015554 79 0 0.0 0.0 0.00 0.00 0.00 80 1019.1
20260902015052 80 0 0.0 0.0 0.00 0.00 0.00 79 1019.0
20260902014602 80 0 0.0 0.0 0.00 0.00 0.00 79 1019.1
20260902014051 80 0 0.0 0.0 0.00 0.00 0.00 79 1019.1
20260902013554 80 0 0.0 0.0 0.00 0.00 0.00 78 1019.0
20260902013101 80 0 0.0 0.0 0.00 0.00 0.00 78 1019.0
20260902012554 80 0 0.0 0.0 0.00 0.00 0.00 78 1018.9
20260902012053 81 0 0.0 0.0 0.00 0.00 0.00 78 1018.8
20260902011601 81 0 0.0 0.0 0.00 0.00 0.00 77 1018.8
20260902011054 81 0 0.0 0.0 0.00 0.00 0.00 77 1018.7
20260902010554 81 0 0.0 0.0 0.00 0.00 0.00 77 1018.7
20260902010112 81 0 0.0 0.0 0.00 0.00 0.00 76 1018.6
20260902005552 81 0 0.0 0.0 0.00 0.00 0.00 76 1018.6
20260902005054 81 0 0.0 0.0 0.00 0.00 0.00 75 1018.6
20260902004559 82 0 0.0 0.0 0.00 0.00 0.00 76 1018.5
20260902004054 82 0 0.0 0.0 0.00 0.00 0.00 75 1018.4
20260902003554 82 0 0.0 0.0 0.00 0.00 0.00 74 1018.5
20260902003104 82 0 0.0 0.0 0.00 0.00 0.00 73 1018.5
20260902002556 83 0 0.0 0.0 0.00 0.00 0.00 73 1018.5
20260902002055 83 0 0.0 0.0 0.00 0.00 0.00 72 1018.5
20260902001620 83 0 0.0 0.0 0.00 0.00 0.00 71 1018.5
20260902001055 84 0 0.0 0.0 0.00 0.00 0.00 70 1018.6
20260902000551 84 0 0.0 0.0 0.00 0.00 0.00 69 1018.6
20260902000107 85 0 0.0 0.0 0.00 0.00 0.00 68 1018.6
20260901235552 85 0 0.0 0.0 0.00 0.00 0.00 67 1018.6
20260901235053 85 0 0.0 0.0 0.00 0.00 0.00 67 1018.6
20260901234604 86 0 0.0 0.0 0.00 0.00 0.00 66 1018.7
20260901234054 86 0 0.0 0.0 0.00 0.00 0.00 66 1018.7
20260901233554 86 0 0.0 0.0 0.00 0.00 0.00 65 1018.7
20260901233102 86 0 0.0 0.0 0.00 0.00 0.00 64 1018.7
20260901232554 87 0 0.0 0.0 0.00 0.00 0.00 64 1018.8
20260901232057 87 0 0.0 0.0 0.00 0.00 0.00 64 1018.8
20260901231607 87 0 0.0 0.0 0.00 0.00 0.00 64 1018.9
20260901231052 87 0 0.0 0.0 0.00 0.00 0.00 64 1018.9
20260901230552 88 0 0.0 0.0 0.00 0.00 0.00 63 1018.9
20260901230101 88 0 0.0 0.0 0.00 0.00 0.00 63 1018.8
20260901225553 88 0 0.0 0.0 0.00 0.00 0.00 61 1018.8
20260901225054 88 0 0.0 0.0 0.00 0.00 0.00 60 1018.8
20260901224602 88 0 0.0 0.0 0.00 0.00 0.00 59 1018.8
20260901224053 89 0 0.0 0.0 0.00 0.00 0.00 60 1018.8
20260901223552 89 0 0.0 0.0 0.00 0.00 0.00 60 1018.8
20260901223103 89 0 0.0 0.0 0.00 0.00 0.00 59 1018.7
20260901222554 89 0 0.0 0.0 0.00 0.00 0.00 59 1018.7
20260901222054 89 0 0.0 0.0 0.00 0.00 0.00 57 1018.7
20260901221624 90 0 0.0 0.0 0.00 0.00 0.00 56 1018.6
20260901221055 90 0 0.0 0.0 0.00 0.00 0.00 58 1018.7
20260901220552 90 0 0.0 0.0 0.00 0.00 0.00 57 1018.8
20260901220117 90 0 0.0 0.0 0.00 0.00 0.00 56 1018.6
20260901215552 90 0 0.0 1.0 0.00 0.00 0.00 56 1018.6
20260901215053 91 163 0.0 1.0 0.00 0.00 0.00 56 1018.6
20260901214603 91 0 0.0 1.0 0.00 0.00 0.00 56 1018.6
20260901214053 91 0 0.0 1.0 0.00 0.00 0.00 56 1018.5
20260901213552 91 163 0.0 0.0 0.00 0.00 0.00 55 1018.6
20260901213101 92 0 0.0 4.0 0.00 0.00 0.00 55 1018.6
20260901212553 92 0 0.0 4.0 0.00 0.00 0.00 55 1018.6
20260901212056 92 163 0.0 1.0 0.00 0.00 0.00 56 1018.6
20260901211602 93 0 0.0 1.0 0.00 0.00 0.00 55 1018.6
20260901211053 93 0 0.0 1.0 0.00 0.00 0.00 54 1018.6
20260901210553 93 0 0.0 2.0 0.00 0.00 0.00 54 1018.7
20260901205553 93 163 0.0 2.0 0.00 0.00 0.00 53 1018.8
20260901205058 94 163 0.0 2.0 0.00 0.00 0.00 52 1018.9
20260901204558 94 163 0.0 2.0 0.00 0.00 0.00 53 1018.9
20260901204058 94 163 0.0 2.0 0.00 0.00 0.00 51 1019.0